GW1009 Weather Reports


time (UTC)temp
C
wind
direction
speed
KPH
gust
KPH
rain 1hr
cm
rain 24hr
cm
rain mn
cm
humidity
%
barometer
mb
20260905200100 19 303 1.6 6.4 0.00 0.00 0.00 71 1010.8
20260905195558 19 315 1.6 11.3 0.00 0.00 0.00 72 1010.8
20260905195100 18 302 4.8 11.3 0.00 0.00 0.00 71 1010.9
20260905194558 18 313 3.2 8.0 0.00 0.00 0.00 72 1010.8
20260905194057 18 302 4.8 8.0 0.00 0.00 0.00 72 1010.8
20260905193557 18 305 3.2 6.4 0.00 0.00 0.00 73 1010.8
20260905193057 18 302 1.6 6.4 0.00 0.00 0.00 71 1010.8
20260905192557 18 314 0.0 6.4 0.00 0.00 0.00 72 1010.8
20260905192100 18 314 1.6 6.4 0.00 0.00 0.00 71 1010.8
20260905191557 18 298 0.0 14.5 0.00 0.00 0.00 72 1010.9
20260905191057 19 301 4.8 14.5 0.00 0.00 0.00 69 1010.8
20260905190556 19 333 8.0 14.5 0.00 0.00 0.00 69 1010.9
20260905185558 20 292 6.4 9.7 0.00 0.00 0.00 66 1010.7
20260905185056 20 314 4.8 9.7 0.00 0.00 0.00 64 1010.7
20260905184601 20 309 3.2 8.0 0.00 0.00 0.00 64 1010.7
20260905184054 20 306 3.2 8.0 0.00 0.00 0.00 62 1010.8
20260905183555 20 333 3.2 9.7 0.00 0.00 0.00 64 1010.8
20260905183117 20 322 6.4 12.9 0.00 0.00 0.00 64 1010.8
20260905182554 20 322 4.8 12.9 0.00 0.00 0.00 64 1010.7
20260905182054 20 333 4.8 9.7 0.00 0.00 0.00 66 1010.8
20260905181559 20 293 0.0 14.5 0.00 0.00 0.00 62 1010.8
20260905181056 20 302 8.0 14.5 0.00 0.00 0.00 61 1010.8
20260905180553 20 302 4.8 9.7 0.00 0.00 0.00 63 1010.8
20260905180052 20 325 4.8 12.9 0.00 0.00 0.00 63 1010.8
20260905175551 20 302 8.0 12.9 0.00 0.00 0.00 64 1010.8
20260905175052 20 315 3.2 9.7 0.00 0.00 0.00 65 1010.8
20260905174551 20 327 3.2 12.9 0.00 0.00 0.00 64 1010.9
20260905174051 20 311 4.8 12.9 0.00 0.00 0.00 64 1010.9
20260905173551 20 297 6.4 14.5 0.00 0.00 0.00 64 1010.9
20260905173051 20 306 6.4 16.1 0.00 0.00 0.00 62 1010.8
20260905172551 20 315 4.8 16.1 0.00 0.00 0.00 62 1010.9
20260905172050 20 240 0.0 9.7 0.00 0.00 0.00 63 1010.9
20260905171550 20 323 4.8 12.9 0.00 0.00 0.00 65 1010.9
20260905171049 20 295 4.8 17.7 0.00 0.00 0.00 64 1010.9
20260905170549 20 300 8.0 17.7 0.00 0.00 0.00 64 1011.0
20260905170049 20 9 4.8 12.9 0.00 0.00 0.00 64 1011.0
20260905165548 20 293 3.2 20.9 0.00 0.00 0.00 66 1011.0
20260905165049 20 306 11.3 20.9 0.00 0.00 0.00 63 1011.0
20260905164547 19 341 3.2 16.1 0.00 0.00 0.00 66 1011.0
20260905164046 19 355 6.4 17.7 0.00 0.00 0.00 65 1011.1
20260905163545 19 331 11.3 19.3 0.00 0.00 0.00 69 1011.0
20260905163045 18 294 4.8 24.1 0.00 0.00 0.00 69 1011.1
20260905162547 19 314 11.3 24.1 0.00 0.00 0.00 68 1011.1
20260905162043 19 11 6.4 14.5 0.00 0.00 0.00 68 1011.2
20260905161542 18 349 6.4 16.1 0.00 0.00 0.00 68 1011.2
20260905161042 18 316 9.7 20.9 0.00 0.00 0.00 71 1011.3
20260905160541 18 348 9.7 20.9 0.00 0.00 0.00 71 1011.2
20260905160041 18 325 8.0 19.3 0.00 0.00 0.00 70 1011.2
20260905155539 18 339 6.4 17.7 0.00 0.00 0.00 73 1011.2
20260905155040 18 317 4.8 9.7 0.00 0.00 0.00 72 1011.4
20260905154539 17 309 3.2 17.7 0.00 0.00 0.00 74 1011.4
20260905154039 17 299 9.7 22.5 0.00 0.00 0.00 73 1011.4
20260905153538 18 320 12.9 22.5 0.00 0.00 0.00 73 1011.4
20260905153052 18 318 11.3 19.3 0.00 0.00 0.00 73 1011.5
20260905152538 18 313 9.7 19.3 0.00 0.00 0.00 73 1011.5
20260905152035 18 293 12.9 19.3 0.00 0.00 0.00 74 1011.4
20260905151540 17 311 9.7 19.3 0.00 0.00 0.00 78 1011.5
20260905151034 17 306 6.4 17.7 0.00 0.00 0.00 79 1011.6
20260905150533 17 320 11.3 17.7 0.00 0.00 0.00 78 1011.7
20260905150033 17 343 8.0 17.7 0.00 0.00 0.00 79 1011.6
20260905145533 17 319 11.3 17.7 0.00 0.00 0.00 80 1011.6
20260905145031 17 300 8.0 17.7 0.00 0.00 0.00 81 1011.5
20260905144531 16 290 9.7 17.7 0.00 0.00 0.00 82 1011.5
20260905144031 16 304 11.3 17.7 0.00 0.00 0.00 82 1011.6
20260905143532 16 302 9.7 17.7 0.00 0.00 0.00 82 1011.5
20260905143035 16 327 4.8 17.7 0.00 0.00 0.00 83 1011.4
20260905142532 16 360 8.0 17.7 0.00 0.00 0.00 83 1011.5
20260905142030 16 304 8.0 19.3 0.00 0.00 0.00 83 1011.4
20260905141530 16 323 9.7 19.3 0.00 0.00 0.00 83 1011.4
20260905141031 16 321 9.7 19.3 0.00 0.00 0.00 83 1011.4
20260905140532 16 308 8.0 17.7 0.00 0.00 0.00 82 1011.4
20260905140030 16 313 11.3 17.7 0.00 0.00 0.00 81 1011.4
20260905135630 17 323 6.4 14.5 0.00 0.00 0.00 81 1011.4
20260905135029 17 311 6.4 14.5 0.00 0.00 0.00 81 1011.4
20260905134526 16 320 4.8 16.1 0.00 0.00 0.00 84 1011.5
20260905134025 16 307 9.7 16.1 0.00 0.00 0.00 85 1011.3
20260905133525 16 327 4.8 17.7 0.00 0.00 0.00 84 1011.4
20260905133030 16 317 9.7 17.7 0.00 0.00 0.00 85 1011.6
20260905132524 16 360 4.8 14.5 0.00 0.00 0.00 86 1011.6
20260905132023 16 302 8.0 16.1 0.00 0.00 0.00 87 1011.7
20260905131530 16 319 9.7 16.1 0.00 0.00 0.00 89 1011.5
20260905131020 16 355 6.4 14.5 0.00 0.00 0.00 90 1011.4
20260905130518 15 321 8.0 14.5 0.00 0.00 0.00 91 1011.4
20260905130031 15 309 4.8 14.5 0.00 0.00 0.00 92 1011.5
20260905125515 15 315 4.8 14.5 0.00 0.00 0.00 93 1011.4
20260905125015 15 311 8.0 14.5 0.00 0.00 0.00 93 1011.4
20260905124515 15 292 8.0 14.5 0.00 0.00 0.00 93 1011.5
20260905124014 15 313 4.8 8.0 0.00 0.00 0.00 94 1011.5
20260905123514 15 306 3.2 6.4 0.00 0.00 0.00 94 1011.4
20260905123014 15 304 3.2 8.0 0.00 0.00 0.00 94 1011.4
20260905122518 15 360 4.8 8.0 0.00 0.00 0.00 94 1011.3
20260905122012 14 303 3.2 8.0 0.00 0.00 0.00 94 1011.1
20260905121512 14 305 4.8 8.0 0.00 0.00 0.00 94 1011.1
20260905121012 14 304 4.8 9.7 0.00 0.00 0.00 94 1011.1
20260905120512 14 302 4.8 9.7 0.00 0.00 0.00 94 1011.0
20260905120012 14 277 6.4 12.9 0.00 0.00 0.00 94 1011.1
20260905115512 14 300 3.2 12.9 0.00 0.00 0.00 94 1011.2
20260905115012 14 294 3.2 11.3 0.00 0.00 0.00 94 1011.2
20260905114510 14 284 3.2 12.9 0.00 0.00 0.00 94 1011.1
20260905114009 14 319 4.8 12.9 0.00 0.00 0.00 94 1010.9
20260905113509 14 290 3.2 8.0 0.00 0.00 0.00 94 1010.9
20260905113012 14 300 3.2 8.0 0.00 0.00 0.00 94 1010.8
20260905112508 14 300 3.2 6.4 0.00 0.00 0.00 94 1010.8
20260905112010 14 306 0.0 3.2 0.00 0.00 0.00 94 1010.6
20260905111507 14 306 0.0 3.2 0.00 0.00 0.00 94 1010.5
20260905111007 14 306 0.0 9.7 0.00 0.00 0.00 94 1010.3
20260905110507 14 306 4.8 9.7 0.00 0.00 0.00 94 1010.2
20260905110007 14 300 1.6 4.8 0.00 0.00 0.00 94 1010.2
20260905105506 14 300 1.6 8.0 0.00 0.00 0.00 94 1010.0
20260905105007 14 299 3.2 8.0 0.00 0.00 0.00 94 1010.0
20260905104506 14 277 3.2 8.0 0.00 0.00 0.00 94 1009.9
20260905104006 14 312 4.8 8.0 0.00 0.00 0.00 94 1010.0
20260905103506 13 306 0.0 0.0 0.00 0.00 0.00 94 1010.0
20260905103008 13 306 0.0 0.0 0.00 0.00 0.00 93 1010.0
20260905102505 13 306 0.0 0.0 0.00 0.00 0.00 93 1010.0
20260905102004 14 306 0.0 0.0 0.00 0.00 0.00 93 1010.0
20260905101504 14 306 0.0 0.0 0.00 0.00 0.00 93 1009.9
20260905101003 14 306 0.0 0.0 0.00 0.00 0.00 93 1009.8
20260905100503 14 306 0.0 0.0 0.00 0.00 0.00 93 1009.7
20260905100003 14 306 0.0 0.0 0.00 0.00 0.00 93 1009.7
20260905095504 14 306 0.0 0.0 0.00 0.00 0.00 93 1009.8
20260905095004 14 306 0.0 0.0 0.00 0.00 0.00 93 1009.9
20260905094504 14 306 0.0 0.0 0.00 0.00 0.00 93 1009.9
20260905094002 14 306 0.0 0.0 0.00 0.00 0.00 93 1009.9
20260905093502 14 306 0.0 0.0 0.00 0.00 0.00 93 1009.9
20260905093001 14 306 0.0 0.0 0.00 0.00 0.00 93 1009.9
20260905092501 14 306 0.0 0.0 0.00 0.00 0.00 93 1009.9
20260905092059 14 306 0.0 0.0 0.00 0.00 0.00 92 1009.9
20260905091601 14 305 0.0 0.0 0.00 0.00 0.00 92 1009.8
20260905091058 14 304 0.0 0.0 0.00 0.00 0.00 92 1009.8
20260905090558 14 320 0.0 0.0 0.00 0.00 0.00 92 1009.7
20260905090058 14 320 0.0 0.0 0.00 0.00 0.00 92 1009.7
20260905085558 14 320 0.0 0.0 0.00 0.00 0.00 92 1009.8
20260905085058 14 329 0.0 0.0 0.00 0.00 0.00 92 1009.9
20260905084656 14 329 0.0 0.0 0.00 0.00 0.00 92 1009.9
20260905084056 14 329 0.0 0.0 0.00 0.00 0.00 91 1009.8
20260905083556 14 329 0.0 0.0 0.00 0.00 0.00 91 1009.9
20260905083055 15 329 0.0 0.0 0.00 0.00 0.00 91 1009.9
20260905082554 15 329 0.0 0.0 0.00 0.00 0.00 91 1010.0
20260905082053 15 329 0.0 0.0 0.00 0.00 0.00 91 1010.0
20260905081553 15 329 0.0 0.0 0.00 0.00 0.00 91 1010.0
20260905081052 15 329 0.0 0.0 0.00 0.00 0.00 91 1010.0
20260905080552 15 329 0.0 0.0 0.00 0.00 0.00 91 1010.0
20260905080054 15 329 0.0 0.0 0.00 0.00 0.00 91 1010.0
20260905075554 15 329 0.0 0.0 0.00 0.00 0.00 91 1010.1
20260905075054 15 329 0.0 0.0 0.00 0.00 0.00 91 1010.1
20260905074557 15 329 0.0 0.0 0.00 0.00 0.00 91 1010.1
20260905074052 15 329 0.0 0.0 0.00 0.00 0.00 91 1010.0
20260905073551 15 329 0.0 0.0 0.00 0.00 0.00 90 1010.0
20260905073101 15 329 0.0 0.0 0.00 0.00 0.00 91 1010.0
20260905072551 15 297 0.0 0.0 0.00 0.00 0.00 90 1010.0
20260905072049 15 279 0.0 0.0 0.00 0.00 0.00 90 1010.0
20260905071550 15 279 0.0 0.0 0.00 0.00 0.00 90 1010.1
20260905071052 15 276 0.0 0.0 0.00 0.00 0.00 90 1010.1
20260905070553 15 275 0.0 0.0 0.00 0.00 0.00 90 1010.2
20260905070049 15 256 0.0 0.0 0.00 0.00 0.00 90 1010.1
20260905065550 15 256 0.0 0.0 0.00 0.00 0.00 90 1010.1
20260905065050 15 270 0.0 0.0 0.00 0.00 0.00 90 1010.2
20260905064547 15 270 0.0 0.0 0.00 0.00 0.00 90 1010.3
20260905064049 15 270 0.0 0.0 0.00 0.00 0.00 90 1010.4
20260905063547 15 270 0.0 0.0 0.00 0.00 0.00 89 1010.3
20260905063046 15 270 0.0 0.0 0.00 0.00 0.00 89 1010.3
20260905062547 15 270 0.0 0.0 0.00 0.00 0.00 89 1010.4
20260905062048 15 270 0.0 0.0 0.00 0.00 0.00 88 1010.4
20260905061545 15 270 0.0 0.0 0.00 0.00 0.00 88 1010.4
20260905061048 15 270 0.0 0.0 0.00 0.00 0.00 88 1010.4
20260905060549 15 270 0.0 0.0 0.00 0.00 0.00 87 1010.3
20260905060046 15 270 0.0 0.0 0.00 0.00 0.00 87 1010.4
20260905055543 15 270 0.0 0.0 0.00 0.00 0.00 87 1010.4
20260905055043 15 270 0.0 0.0 0.00 0.00 0.00 86 1010.5
20260905054546 15 270 0.0 0.0 0.00 0.00 0.00 86 1010.6
20260905054042 15 270 0.0 0.0 0.00 0.00 0.00 86 1010.5
20260905053542 15 270 0.0 0.0 0.00 0.00 0.00 86 1010.6
20260905053100 15 270 0.0 0.0 0.00 0.00 0.00 86 1010.7
20260905052541 15 312 0.0 0.0 0.00 0.00 0.00 86 1010.7
20260905052040 15 251 0.0 0.0 0.00 0.00 0.00 86 1010.7
20260905051539 15 251 0.0 0.0 0.00 0.00 0.00 86 1010.7
20260905051039 15 293 0.0 0.0 0.00 0.00 0.00 86 1010.8
20260905050539 15 293 0.0 0.0 0.00 0.00 0.00 86 1010.8
20260905050039 15 293 0.0 0.0 0.00 0.00 0.00 86 1010.8
20260905045540 15 293 0.0 0.0 0.00 0.00 0.00 87 1010.8
20260905045038 15 293 0.0 0.0 0.00 0.00 0.00 87 1010.8
20260905044538 15 293 0.0 0.0 0.00 0.00 0.00 87 1010.8
20260905044037 15 293 0.0 0.0 0.00 0.00 0.00 87 1010.9
20260905043537 15 293 0.0 0.0 0.00 0.00 0.00 87 1010.9
20260905043037 15 293 0.0 0.0 0.00 0.00 0.00 87 1010.9
20260905042538 15 292 0.0 0.0 0.00 0.00 0.00 88 1010.9
20260905042034 15 294 0.0 0.0 0.00 0.00 0.00 88 1010.9
20260905041532 15 294 0.0 0.0 0.00 0.00 0.00 88 1010.9
20260905041032 15 293 0.0 0.0 0.00 0.00 0.00 88 1010.9
20260905040534 15 293 0.0 0.0 0.00 0.00 0.00 89 1010.9
20260905040030 15 293 0.0 0.0 0.00 0.00 0.00 89 1010.9
20260905035531 15 293 0.0 0.0 0.00 0.00 0.00 89 1011.0
20260905035031 15 293 0.0 0.0 0.00 0.00 0.00 89 1011.0
20260905034530 15 293 0.0 0.0 0.00 0.00 0.00 89 1010.9
20260905034029 15 293 0.0 0.0 0.00 0.00 0.00 89 1010.9
20260905033531 15 293 0.0 0.0 0.00 0.00 0.00 88 1010.9
20260905033041 15 293 0.0 0.0 0.00 0.00 0.00 88 1010.9
20260905032528 15 293 0.0 0.0 0.00 0.00 0.00 88 1010.9
20260905032028 15 293 0.0 0.0 0.00 0.00 0.00 87 1010.9
20260905031529 15 293 0.0 0.0 0.00 0.00 0.00 87 1010.8
20260905031032 15 293 0.0 0.0 0.00 0.00 0.00 86 1010.8
20260905030528 15 293 0.0 0.0 0.00 0.00 0.00 86 1010.8
20260905030028 15 293 0.0 0.0 0.00 0.00 0.00 86 1010.8
20260905025531 15 293 0.0 0.0 0.00 0.00 0.00 86 1010.8
20260905025028 15 293 0.0 0.0 0.00 0.00 0.00 86 1010.9
20260905024528 15 293 0.0 0.0 0.00 0.00 0.00 87 1010.9
20260905024031 15 293 0.0 0.0 0.00 0.00 0.00 87 1011.0
20260905023527 15 293 0.0 0.0 0.00 0.00 0.00 87 1011.1
20260905023028 15 293 0.0 0.0 0.00 0.00 0.00 87 1011.1
20260905022527 15 293 0.0 0.0 0.00 0.00 0.00 88 1011.1
20260905022027 15 293 0.0 0.0 0.00 0.00 0.00 88 1011.2
20260905021534 15 293 0.0 0.0 0.00 0.00 0.00 88 1011.2
20260905021028 15 293 0.0 0.0 0.00 0.00 0.00 87 1011.3
20260905020526 15 293 0.0 0.0 0.00 0.00 0.00 87 1011.3
20260905020029 15 293 0.0 0.0 0.00 0.00 0.00 87 1011.3
20260905015525 15 293 0.0 0.0 0.00 0.00 0.00 87 1011.2
20260905015030 15 293 0.0 0.0 0.00 0.00 0.00 87 1011.3
20260905014526 15 293 0.0 0.0 0.00 0.00 0.00 87 1011.4
20260905014024 15 293 0.0 0.0 0.00 0.00 0.00 86 1011.3
20260905013525 15 293 0.0 0.0 0.00 0.00 0.00 86 1011.4
20260905013023 15 293 0.0 0.0 0.00 0.00 0.00 85 1011.4
20260905012524 15 293 0.0 0.0 0.00 0.00 0.00 85 1011.4
20260905012022 15 294 0.0 3.2 0.00 0.00 0.00 84 1011.4
20260905011523 15 294 0.0 3.2 0.00 0.00 0.00 84 1011.3
20260905011022 15 294 0.0 0.0 0.00 0.00 0.00 84 1011.3
20260905010524 15 294 0.0 0.0 0.00 0.00 0.00 83 1011.2
20260905010021 15 294 0.0 0.0 0.00 0.00 0.00 82 1011.3
20260905005522 15 294 0.0 0.0 0.00 0.00 0.00 82 1011.4
20260905005022 15 294 0.0 0.0 0.00 0.00 0.00 82 1011.3
20260905004524 16 294 0.0 0.0 0.00 0.00 0.00 81 1011.2
20260905004021 16 294 0.0 0.0 0.00 0.00 0.00 81 1011.2
20260905003524 16 294 0.0 0.0 0.00 0.00 0.00 81 1011.2
20260905003021 16 294 0.0 0.0 0.00 0.00 0.00 78 1011.1
20260905002521 16 294 0.0 0.0 0.00 0.00 0.00 78 1011.1
20260905002021 16 294 0.0 0.0 0.00 0.00 0.00 77 1011.1
20260905001521 17 294 0.0 1.6 0.00 0.00 0.00 76 1011.0
20260905001020 17 294 0.0 1.6 0.00 0.00 0.00 75 1011.1
20260905000520 17 294 0.0 3.2 0.00 0.00 0.00 73 1010.9
20260905000020 17 293 0.0 1.6 0.00 0.00 0.00 73 1010.9
20260904235519 17 360 0.0 1.6 0.00 0.00 0.00 71 1010.9
20260904235019 17 293 0.0 4.8 0.00 0.00 0.00 71 1011.0
20260904234519 18 293 0.0 6.4 0.00 0.00 0.00 70 1010.9
20260904234019 18 293 1.6 9.7 0.00 0.00 0.00 69 1010.9
20260904233519 18 284 0.0 9.7 0.00 0.00 0.00 69 1010.9
20260904233020 18 286 0.0 4.8 0.00 0.00 0.00 69 1010.9
20260904232521 18 305 0.0 4.8 0.00 0.00 0.00 68 1010.8
20260904232018 18 306 1.6 8.0 0.00 0.00 0.00 67 1010.8
20260904231522 18 306 3.2 11.3 0.00 0.00 0.00 66 1010.9
20260904231018 18 294 4.8 11.3 0.00 0.00 0.00 66 1010.7
20260904230518 19 298 4.8 12.9 0.00 0.00 0.00 66 1010.8
20260904230021 19 307 4.8 14.5 0.00 0.00 0.00 66 1010.8
20260904225518 19 300 6.4 14.5 0.00 0.00 0.00 65 1010.8
20260904225018 19 304 6.4 12.9 0.00 0.00 0.00 65 1010.8
20260904224517 19 294 6.4 12.9 0.00 0.00 0.00 65 1010.7
20260904224017 19 291 4.8 12.9 0.00 0.00 0.00 65 1010.7
20260904223518 20 253 3.2 16.1 0.00 0.00 0.00 64 1010.7
20260904223023 20 286 3.2 16.1 0.00 0.00 0.00 63 1010.6
20260904222520 20 278 4.8 14.5 0.00 0.00 0.00 64 1010.6
20260904222015 20 294 6.4 14.5 0.00 0.00 0.00 63 1010.7
20260904221515 20 285 6.4 14.5 0.00 0.00 0.00 63 1010.7
20260904221015 20 325 4.8 14.5 0.00 0.00 0.00 64 1010.6
20260904220518 20 299 9.7 16.1 0.00 0.00 0.00 64 1010.6
20260904220015 20 309 8.0 16.1 0.00 0.00 0.00 64 1010.5
20260904215515 20 311 8.0 19.3 0.00 0.00 0.00 63 1010.5
20260904215017 20 311 9.7 19.3 0.00 0.00 0.00 62 1010.5
20260904214518 20 307 9.7 24.1 0.00 0.00 0.00 62 1010.6
20260904214013 21 293 12.9 27.4 0.00 0.00 0.00 61 1010.5
20260904213514 21 299 12.9 24.1 0.00 0.00 0.00 59 1010.6
20260904213025 21 304 11.3 25.7 0.00 0.00 0.00 58 1010.5
20260904212516 21 317 14.5 27.4 0.00 0.00 0.00 56 1010.5
20260904212012 21 285 11.3 29.0 0.00 0.00 0.00 56 1010.5
20260904211518 21 288 14.5 29.0 0.00 0.00 0.00 54 1010.6
20260904211012 21 311 11.3 29.0 0.00 0.00 0.00 55 1010.5
20260904210512 21 310 14.5 25.7 0.00 0.00 0.00 54 1010.6
20260904210023 21 300 9.7 22.5 0.00 0.00 0.00 56 1010.6
20260904205512 21 309 11.3 24.1 0.00 0.00 0.00 56 1010.6
20260904205011 21 306 16.1 24.1 0.00 0.00 0.00 56 1010.6
20260904204520 21 290 12.9 25.7 0.00 0.00 0.00 57 1010.7
20260904204011 21 286 14.5 29.0 0.00 0.00 0.00 56 1010.7
20260904203511 21 277 9.7 25.7 0.00 0.00 0.00 57 1010.7
20260904203011 21 281 12.9 25.7 0.00 0.00 0.00 56 1010.7
20260904202515 21 286 11.3 27.4 0.00 0.00 0.00 55 1010.8
20260904202012 22 285 16.1 27.4 0.00 0.00 0.00 53 1010.9
20260904201510 22 309 14.5 32.2 0.00 0.00 0.00 55 1010.8
20260904201010 22 311 16.1 27.4 0.00 0.00 0.00 53 1010.8
20260904200515 22 302 14.5 27.4 0.00 0.00 0.00 56 1010.9